Terminal Aerodrome Forecast
Issued by NWS

Home | Current Version | Previous Version | Text Only | Print | Product List | Glossary On
Versions: 1 2 3 4 5 6 7 8 9 10 11 12 13
000
FTUS42 KTAE 301722
TAFABY
TAF
KABY 301722Z 3018/3118 09005KT P6SM BKN050
     FM311000 12003KT 5SM BR SCT003
     FM311300 16004KT P6SM SCT035=

USA.gov is the U.S. government's official web portal to all federal, state and local government web resources and services.